C/2020 T2 ( Palomar )

Japanese version
Home page
Updated on March 27, 2022

---------------------------------------------------------------------

* Profile

Discovery Date October 7, 2020
Magnitude 19.3 mag
Discoverer Dmitry A. Duev (Palomar, Zwicky Transient Facility's Twilight Survey)

* Pictures

* Orbital Elements

Epoch 2022 Jan. 21.0 TT = JDT 2459600.5
T 2021 July 11.17590 TT                                 Rudenko
q   2.0548467            (2000.0)            P               Q
z  +0.0031651      Peri.  150.39897     -0.53873074     +0.70316455
 +/-0.0000007      Node    83.04525     -0.83520963     -0.37357096
e   0.9934962      Incl.   27.87052     -0.11042675     -0.60498293
From 2565 observations 2019 Dec. 11-2021 Nov. 27, mean residual 0".4.

* Finding Charts

* Magnitudes Graph

        m1 = 2.7 + 5 log d + 19.0 log r(t - 20)

---------------------------------------------------------------------

The orbital elements are published on M.P.E.C. 2022-C56.
The charts are made with StellaNavigator Ver.10 (AstroArts).
The magnitudes graphs are made with Comet for Windows.

---------------------------------------------------------------------

Copyright(C) Seiichi Yoshida (comet@aerith.net). All rights reserved.